When you browse on this site, cookies collect data to enhance your experience and personalize the content and advertising you see.
Visit our Privacy Policy to learn more. By continuing to use the site, you agree to this use of cookies and data.
  • în România
  • Lista ţărilor
  • Pe 7 zile
  • Temperatura apei
  • Hartă satelitară
  • Meteo pe hartă
  • Widget-uri
  • user-avatar
    Intrare

    Meteo pe oră la Santiago del Estero

    Astăzi, 24 Martie, Duminică

    Timp Temperatura Precipitaţii Vânt Presiune Umiditate
    00:00 +24°C° 0 mm 2 m/s 743 mmHg 65%
    01:00 +23°C° 0 mm 2 m/s 743 mmHg 68%
    02:00 +23°C° 0 mm 1 m/s 743 mmHg 71%
    03:00 +22°C° 0 mm 1 m/s 743 mmHg 72%
    04:00 +22°C° 0 mm 1 m/s 743 mmHg 73%
    05:00 +21°C° 0 mm 1 m/s 743 mmHg 73%
    06:00 +23°C° 0 mm 1 m/s 744 mmHg 69%
    07:00 +24°C° 0 mm 1 m/s 744 mmHg 64%
    08:00 +25°C° 0 mm 1 m/s 745 mmHg 60%
    09:00 +28°C° 0 mm 1 m/s 745 mmHg 53%
    10:00 +30°C° 0 mm 1 m/s 746 mmHg 47%
    11:00 +32°C° 0 mm 2 m/s 746 mmHg 40%
    12:00 +34°C° 0 mm 2 m/s 745 mmHg 38%
    13:00 +35°C° 0 mm 2 m/s 745 mmHg 36%
    14:00 +35°C° 0 mm 2 m/s 744 mmHg 33%
    15:00 +35°C° 0 mm 2 m/s 744 mmHg 36%
    16:00 +34°C° 0 mm 2 m/s 743 mmHg 38%
    17:00 +34°C° 0 mm 2 m/s 743 mmHg 40%
    18:00 +32°C° 0 mm 2 m/s 743 mmHg 41%
    19:00 +30°C° 0 mm 2 m/s 744 mmHg 42%
    20:00 +29°C° 0 mm 2 m/s 744 mmHg 44%
    21:00 +29°C° 0 mm 3 m/s 744 mmHg 44%
    22:00 +29°C° 0 mm 3 m/s 745 mmHg 44%
    23:00 +29°C° 0 mm 3 m/s 745 mmHg 44%

    Mâine, 25 Martie, Luni

    Timp Temperatura Precipitaţii Vânt Presiune Umiditate
    00:00 +28°C° 0 mm 4 m/s 745 mmHg 47%
    01:00 +27°C° 0 mm 4 m/s 745 mmHg 50%
    02:00 +26°C° 0 mm 5 m/s 744 mmHg 53%
    03:00 +25°C° 0 mm 5 m/s 744 mmHg 51%
    04:00 +23°C° 0 mm 5 m/s 744 mmHg 50%
    05:00 +23°C° 0 mm 4 m/s 744 mmHg 48%
    06:00 +23°C° 0 mm 4 m/s 744 mmHg 44%
    07:00 +23°C° 0 mm 4 m/s 745 mmHg 41%
    08:00 +23°C° 0 mm 4 m/s 745 mmHg 37%
    09:00 +24°C° 0 mm 3 m/s 745 mmHg 38%
    10:00 +24°C° 0 mm 3 m/s 746 mmHg 38%
    11:00 +25°C° 0 mm 3 m/s 746 mmHg 38%
    12:00 +25°C° 0 mm 3 m/s 745 mmHg 40%
    13:00 +26°C° 0 mm 3 m/s 745 mmHg 42%
    14:00 +27°C° 0 mm 2 m/s 744 mmHg 43%
    15:00 +27°C° 0 mm 3 m/s 744 mmHg 44%
    16:00 +26°C° 0 mm 4 m/s 743 mmHg 45%
    17:00 +26°C° 0 mm 4 m/s 743 mmHg 45%
    18:00 +26°C° 0 mm 4 m/s 744 mmHg 46%
    19:00 +25°C° 0 mm 4 m/s 744 mmHg 47%
    20:00 +25°C° 0 mm 4 m/s 745 mmHg 48%
    21:00 +25°C° 0 mm 4 m/s 746 mmHg 48%
    22:00 +25°C° 0 mm 4 m/s 746 mmHg 48%
    23:00 +23°C° 0 mm 4 m/s 747 mmHg 48%

    Poimâine, 26 Martie, Marţi

    Timp Temperatura Precipitaţii Vânt Presiune Umiditate
    00:00 +22°C° 0.1 mm 4 m/s 747 mmHg 52%
    01:00 +21°C° 0.1 mm 4 m/s 747 mmHg 55%
    02:00 +20°C° 0.1 mm 5 m/s 747 mmHg 58%
    03:00 +19°C° 0.1 mm 5 m/s 747 mmHg 63%
    04:00 +17°C° 0.1 mm 5 m/s 747 mmHg 68%
    05:00 +16°C° 0.1 mm 5 m/s 747 mmHg 73%
    06:00 +17°C° 0.2 mm 4 m/s 748 mmHg 74%
    07:00 +15°C° 0.2 mm 4 m/s 748 mmHg 76%
    08:00 +15°C° 0.2 mm 4 m/s 749 mmHg 77%
    09:00 +16°C° 0.7 mm 3 m/s 749 mmHg 80%
    10:00 +16°C° 0.7 mm 3 m/s 750 mmHg 83%
    11:00 +16°C° 0.7 mm 3 m/s 750 mmHg 86%
    12:00 +16°C° 0.1 mm 3 m/s 750 mmHg 85%
    13:00 +16°C° 0.1 mm 3 m/s 749 mmHg 83%
    14:00 +17°C° 0.1 mm 3 m/s 749 mmHg 81%
    15:00 +17°C° 0 mm 3 m/s 749 mmHg 81%
    16:00 +17°C° 0 mm 3 m/s 748 mmHg 81%
    17:00 +16°C° 0 mm 2 m/s 748 mmHg 81%
    18:00 +16°C° 0 mm 2 m/s 749 mmHg 82%
    19:00 +16°C° 0 mm 2 m/s 749 mmHg 84%
    20:00 +16°C° 0 mm 2 m/s 749 mmHg 85%
    21:00 +16°C° 0 mm 2 m/s 750 mmHg 85%
    22:00 +16°C° 0 mm 2 m/s 750 mmHg 85%
    23:00 +16°C° 0 mm 2 m/s 750 mmHg 86%

    27 Martie, Miercuri

    Timp Temperatura Precipitaţii Vânt Presiune Umiditate
    00:00 +16°C° 0 mm 2 m/s 750 mmHg 86%
    01:00 +16°C° 0 mm 2 m/s 750 mmHg 85%
    02:00 +16°C° 0 mm 2 m/s 749 mmHg 85%
    03:00 +16°C° 0 mm 1 m/s 749 mmHg 85%
    04:00 +16°C° 0 mm 1 m/s 749 mmHg 84%
    05:00 +16°C° 0 mm 1 m/s 749 mmHg 83%
    06:00 +16°C° 0 mm 1 m/s 749 mmHg 82%
    07:00 +16°C° 0 mm 1 m/s 750 mmHg 80%
    08:00 +18°C° 0 mm 1 m/s 750 mmHg 79%
    09:00 +19°C° 0 mm 1 m/s 750 mmHg 72%
    10:00 +19°C° 0 mm 2 m/s 750 mmHg 66%
    11:00 +21°C° 0 mm 2 m/s 750 mmHg 60%
    12:00 +23°C° 0 mm 2 m/s 749 mmHg 55%
    13:00 +25°C° 0 mm 3 m/s 748 mmHg 50%
    14:00 +27°C° 0 mm 3 m/s 747 mmHg 45%
    15:00 +27°C° 0 mm 3 m/s 747 mmHg 44%
    16:00 +27°C° 0 mm 3 m/s 746 mmHg 43%
    17:00 +27°C° 0 mm 3 m/s 746 mmHg 42%
    18:00 +26°C° 0 mm 2 m/s 746 mmHg 46%
    19:00 +24°C° 0 mm 2 m/s 747 mmHg 50%
    20:00 +23°C° 0 mm 1 m/s 747 mmHg 54%
    21:00 +22°C° 0 mm 1 m/s 747 mmHg 57%
    22:00 +21°C° 0 mm 1 m/s 748 mmHg 60%
    23:00 +20°C° 0 mm 1 m/s 748 mmHg 62%

    28 Martie, Joi

    Timp Temperatura Precipitaţii Vânt Presiune Umiditate
    00:00 +20°C° 0 mm 1 m/s 747 mmHg 65%
    01:00 +20°C° 0 mm 1 m/s 747 mmHg 67%
    02:00 +19°C° 0 mm 1 m/s 747 mmHg 69%
    03:00 +19°C° 0 mm 1 m/s 747 mmHg 68%
    04:00 +19°C° 0 mm 1 m/s 746 mmHg 67%
    05:00 +19°C° 0 mm 1 m/s 746 mmHg 66%
    06:00 +20°C° 0 mm 1 m/s 747 mmHg 63%
    07:00 +21°C° 0 mm 1 m/s 747 mmHg 60%
    08:00 +22°C° 0 mm 1 m/s 747 mmHg 57%
    09:00 +24°C° 0 mm 2 m/s 747 mmHg 52%
    10:00 +26°C° 0 mm 2 m/s 747 mmHg 48%
    11:00 +28°C° 0 mm 3 m/s 747 mmHg 43%
    12:00 +29°C° 0 mm 3 m/s 746 mmHg 41%
    13:00 +30°C° 0 mm 3 m/s 746 mmHg 38%
    14:00 +31°C° 0 mm 3 m/s 745 mmHg 36%
    15:00 +31°C° 0 mm 3 m/s 745 mmHg 36%
    16:00 +31°C° 0 mm 3 m/s 745 mmHg 36%
    17:00 +31°C° 0 mm 3 m/s 744 mmHg 37%
    18:00 +29°C° 0 mm 2 m/s 745 mmHg 41%
    19:00 +27°C° 0 mm 2 m/s 745 mmHg 46%
    20:00 +25°C° 0 mm 2 m/s 746 mmHg 50%
    21:00 +25°C° 0 mm 2 m/s 746 mmHg 53%
    22:00 +24°C° 0 mm 2 m/s 746 mmHg 56%
    23:00 +23°C° 0 mm 2 m/s 746 mmHg 59%

    29 Martie, Vineri

    Timp Temperatura Precipitaţii Vânt Presiune Umiditate
    00:00 +21°C° 0 mm 2 m/s 746 mmHg 62%
    01:00 +21°C° 0 mm 2 m/s 746 mmHg 66%
    02:00 +21°C° 0 mm 1 m/s 745 mmHg 69%
    03:00 +21°C° 0 mm 1 m/s 745 mmHg 70%
    04:00 +21°C° 0 mm 1 m/s 745 mmHg 71%
    05:00 +20°C° 0 mm 1 m/s 745 mmHg 72%
    06:00 +21°C° 0 mm 1 m/s 745 mmHg 69%
    07:00 +22°C° 0 mm 1 m/s 745 mmHg 66%
    08:00 +23°C° 0 mm 1 m/s 746 mmHg 63%
    09:00 +26°C° 0 mm 1 m/s 745 mmHg 58%
    10:00 +28°C° 0 mm 2 m/s 745 mmHg 52%
    11:00 +30°C° 0 mm 2 m/s 745 mmHg 47%
    12:00 +32°C° 0 mm 2 m/s 744 mmHg 43%
    13:00 +34°C° 0 mm 3 m/s 743 mmHg 40%
    14:00 +35°C° 0 mm 4 m/s 742 mmHg 36%
    15:00 +35°C° 0 mm 4 m/s 741 mmHg 37%
    16:00 +35°C° 0 mm 4 m/s 741 mmHg 38%
    17:00 +35°C° 0 mm 3 m/s 740 mmHg 39%
    18:00 +34°C° 0 mm 3 m/s 741 mmHg 43%
    19:00 +31°C° 0 mm 3 m/s 741 mmHg 46%
    20:00 +30°C° 0 mm 3 m/s 741 mmHg 49%
    21:00 +29°C° 0 mm 2 m/s 741 mmHg 52%
    22:00 +28°C° 0 mm 2 m/s 741 mmHg 55%
    23:00 +26°C° 0 mm 2 m/s 741 mmHg 58%
    Arată mai mult